[[{"header":{"parameterUnit":"m.s-1","parameterCategory":1,"la1":30.2991,"la2":30.254,"lo1":-89.0895,"lo2":-89.0444,"dy":0.0017,"dx":0.0017,"nx":28,"ny":28,"refTime":"2026-03-04T03:00:00:Z","depth":0,"parameterNumber":2,"parameterNumberName":"U-component_of_WINDS"},"data":[0,0,0,0,0,0,0,0,0,0,0,0,0,0,0,0,0,0,0,0,0,0,0,0,0,0,0,0,0,0,0,0,0,0,0,0,0,0,0,0,0,0,0,0,0,0,0,0,0,0,0,0,0,0,0,0,0,0,-5.5633,-5.5633,0,-5.5626,-5.5626,-5.5626,-5.5519,-5.5516,-5.5513,-5.5511,-5.5505,-5.5507,-5.551,0,0,0,0,0,0,0,0,0,0,0,0,0,-5.5558,-5.556,-5.5633,-5.5633,-5.5633,-5.5626,-5.5626,-5.5626,-5.5519,-5.5516,-5.5513,-5.551,-5.5504,-5.5507,-5.551,0,0,0,0,0,0,0,0,0,0,0,0,0,-5.5575,-5.556,-5.5633,-5.5579,-5.5574,-5.5626,-5.5626,-5.5626,-5.552,-5.5516,-5.5512,-5.5508,-5.5503,-5.5507,-5.551,-5.5615,0,0,-5.5521,-5.5523,0,0,0,0,0,0,0,0,-5.5574,-5.5578,-5.5587,-5.5583,-5.5577,-5.5569,-5.5597,-5.5622,-5.5521,-5.5541,-5.5511,-5.5506,-5.553,-5.5531,-5.5539,-5.5614,-5.5614,-5.5522,-5.5524,-5.5525,-5.5526,0,0,0,0,0,0,0,-5.5573,-5.5578,-5.563,-5.5587,-5.5581,-5.5556,-5.5554,-5.5602,-5.5558,-5.5539,-5.5531,-5.5531,-5.5526,-5.5536,-5.5538,-5.5614,-5.5522,-5.5525,-5.5527,-5.5528,-5.5778,-5.5782,0,0,0,0,0,0,-5.5579,-5.5577,-5.5631,-5.563,-5.5566,-5.5561,-5.5559,-5.5576,-5.5557,-5.5551,-5.5535,-5.5526,-5.5531,-5.5534,-5.5537,-5.5659,-5.5525,-5.5529,-5.5531,-5.5774,-5.5779,-5.5784,0,0,0,0,0,0,-5.5578,-5.5585,-5.5631,-5.5602,-5.5606,-5.5567,-5.5587,-5.5578,-5.5587,-5.5555,-5.5547,-5.5552,-5.5528,-5.5532,-5.5597,-5.5657,-5.553,-5.5534,-5.5768,-5.5775,-5.5781,-5.5902,0,0,0,0,0,0,-5.5576,-5.5585,-5.5623,-5.5603,-5.5608,-5.569,-5.5591,-5.5581,-5.5593,-5.5582,-5.5568,-5.5562,-5.5525,-5.5592,-5.56,-5.566,-5.5536,-5.5763,-5.5771,-5.5779,-5.5893,-5.5912,-5.5929,0,0,0,0,0,-5.5574,-5.5657,-5.5625,-5.5632,-5.5654,-5.5693,-5.5696,-5.5651,-5.5598,-5.5637,-5.5617,-5.5563,-5.565,-5.5599,-5.5608,-5.5669,-5.5759,-5.5769,-5.5779,-5.5884,-5.5908,-5.5929,0,0,0,0,0,0,-5.5683,-5.5653,-5.5617,-5.5697,-5.5699,-5.5675,-5.5721,-5.5677,-5.5694,-5.5683,-5.5628,-5.5626,-5.5699,-5.5691,-5.5635,-5.5771,-5.5695,-5.5707,-5.5772,-5.5795,-5.5813,-5.5812,-5.5539,0,0,0,0,0,-5.5717,-5.5751,-5.5723,-5.5795,-5.5798,-5.5761,-5.5776,-5.5742,-5.5741,-5.5741,-5.5726,-5.5728,-5.5756,-5.5776,-5.58,-5.5893,-5.5888,-5.5939,-5.5958,-5.5973,-5.5983,-5.6033,-5.6055,-5.5817,-5.5817,-5.5817,0,0,-5.5786,-5.5774,-5.5798,-5.5817,-5.5814,-5.5851,-5.5761,-5.5804,-5.5831,-5.5748,-5.5807,-5.5797,-5.5797,-5.5876,-5.5911,-5.5872,-5.6049,-5.5986,-5.5998,-5.6,-5.6046,-5.6068,-5.6088,-5.5824,-5.5822,-5.5821,0,0,-5.593,-5.5925,-5.5985,-5.5985,-5.5983,-5.5958,-5.5973,-5.5957,-5.5947,-5.6007,-5.5946,-5.5979,-5.6028,-5.603,-5.6038,-5.619,-5.6141,-5.62,-5.6293,-5.6343,-5.6362,-5.6378,-5.6432,-5.6452,-5.6211,-5.6211,-5.6211,0,-5.6016,-5.6068,-5.6021,-5.6069,-5.6079,-5.6008,-5.607,-5.6072,-5.6078,-5.6088,-5.6045,-5.6107,-5.6102,-5.6182,-5.6219,-5.6228,-5.6244,-5.6199,-5.6363,-5.6379,-5.6393,-5.6444,-5.6465,-5.6218,-5.6217,-5.6217,-5.6216,0,-5.6174,-5.6212,-5.6262,-5.627,-5.6287,-5.6341,-5.6304,-5.6328,-5.6294,-5.6275,-5.6338,-5.633,-5.6352,-5.6369,-5.6336,-5.6446,-5.6422,-5.6372,-5.6294,-5.6424,-5.6471,-5.649,-5.6228,-5.6226,-5.6224,-5.6222,0,0,-5.6382,-5.6367,-5.6386,-5.639,-5.6384,-5.6413,-5.6467,-5.6488,-5.651,-5.6519,-5.6562,-5.6608,-5.6562,-5.6572,-5.6539,-5.6583,-5.6705,-5.6528,-5.6527,-5.656,-5.6826,-5.6861,-5.6884,-5.6674,-5.6678,-5.668,-5.6825,0,-5.652,-5.6607,-5.657,-5.6662,-5.6697,-5.6633,-5.6679,-5.6682,-5.6667,-5.6696,-5.668,-5.6713,-5.6651,-5.6657,-5.6698,-5.6681,-5.6757,-5.6671,-5.6714,-5.6716,-5.6713,-5.6909,-5.6946,-5.7083,-5.6843,-5.6846,-5.6849,0,-5.6691,-5.6708,-5.6804,-5.6795,-5.6809,-5.6851,-5.6869,-5.6898,-5.6902,-5.6888,-5.6901,-5.686,-5.6914,-5.684,-5.6913,-5.6855,-5.6872,-5.6867,-5.6871,-5.6871,-5.6788,-5.6913,-5.7125,-5.7145,-5.6877,-5.6875,-5.6873,0,-5.6832,-5.6879,-5.6942,-5.6948,-5.694,-5.6972,-5.697,-5.6969,-5.6986,-5.7004,-5.7014,-5.7038,-5.7051,-5.7071,-5.7039,-5.6988,-5.7118,-5.704,-5.7108,-5.7109,-5.7134,-5.7133,-5.7351,-5.715,-5.7149,-5.7149,-5.7148,0,-5.6989,-5.705,-5.7006,-5.7045,-5.7112,-5.707,-5.7139,-5.713,-5.7132,-5.7169,-5.7116,-5.7153,-5.7109,-5.7142,-5.7118,-5.7183,-5.7189,-5.718,-5.7172,-5.7183,-5.7184,-5.7191,-5.718,-5.7154,-5.7153,-5.7152,-5.7151,0,-5.7155,-5.7128,-5.7193,-5.7182,-5.7181,-5.7231,-5.7222,-5.7258,-5.7242,-5.729,-5.7299,-5.7274,-5.731,-5.7281,-5.7317,-5.7301,-5.7386,-5.7366,-5.7385,-5.7378,-5.7447,-5.744,-5.7675,-5.7703,-5.7486,-5.7488,-5.749,0,-5.7255,-5.73,-5.7295,-5.7317,-5.7319,-5.7354,-5.7371,-5.7334,-5.7354,-5.7365,-5.7401,-5.7433,-5.7457,-5.7519,-5.7504,-5.7532,-5.7511,-5.7592,-5.7514,-5.7525,-5.7511,-5.7507,-5.7512,-5.7606,-5.7608,-5.7611,-5.7612,0,-5.7435,-5.7421,-5.7448,-5.7472,-5.7495,-5.7512,-5.7525,-5.7546,-5.7508,-5.7535,-5.7572,-5.7591,-5.7629,-5.7662,-5.7685,-5.7685,-5.7643,-5.7638,-5.7654,-5.7664,-5.7673,-5.7668,-5.7425,-5.7631,-5.7629,-5.7628,-5.7627,-5.7626,-5.757,-5.7609,-5.7612,-5.7645,-5.7651,-5.7666,-5.77,-5.7689,-5.772,-5.7747,-5.7724,-5.777,-5.7776,-5.7803,-5.7809,-5.7845,-5.7811,-5.7836,-5.7842,-5.7848,-5.7857,-5.767,-5.7849,-5.7848,-5.7848,-5.7847,-5.7847,0,-5.7747,-5.7747,-5.7778,-5.7799,-5.7826,-5.7786,-5.78,-5.7825,-5.7865,-5.7875,-5.79,-5.7945,-5.7978,-5.7968,-5.7998,-5.8029,-5.801,-5.8038,-5.8033,-5.8034,-5.7885,-5.7867,-5.8052,-5.8052,-5.8052,-5.8052,-5.8052,-5.8052,-5.7841,-5.7905,-5.7892,-5.7959,-5.7959,-5.8003,-5.8014,-5.8028,-5.8036,-5.8088,-5.8115,-5.8109,-5.8111,-5.8142,-5.8172,-5.8168,-5.8181,-5.8215,-5.8205,-5.8065,-5.8044,-5.8025,-5.8007,-5.8219,-5.8219,-5.835,-5.8351,-5.8352]},{"header":{"parameterUnit":"m.s-1","parameterCategory":1,"la1":30.2991,"la2":30.254,"lo1":-89.0895,"lo2":-89.0444,"dy":0.0017,"dx":0.0017,"nx":28,"ny":28,"refTime":"2026-03-04T03:00:00:Z","depth":0,"parameterNumber":3,"parameterNumberName":"V-component_of_WINDS"},"data":[0,0,0,0,0,0,0,0,0,0,0,0,0,0,0,0,0,0,0,0,0,0,0,0,0,0,0,0,0,0,0,0,0,0,0,0,0,0,0,0,0,0,0,0,0,0,0,0,0,0,0,0,0,0,0,0,0,0,1.7755,1.7755,0,1.774,1.774,1.7739,1.7765,1.7766,1.7767,1.7768,1.7747,1.7746,1.7745,0,0,0,0,0,0,0,0,0,0,0,0,0,1.7803,1.7802,1.7755,1.7754,1.7754,1.774,1.774,1.7739,1.7765,1.7766,1.7767,1.7768,1.7748,1.7746,1.7744,0,0,0,0,0,0,0,0,0,0,0,0,0,1.7784,1.7801,1.7755,1.7766,1.7766,1.774,1.774,1.7739,1.7765,1.7766,1.7768,1.7769,1.7748,1.7746,1.7744,1.7705,0,0,1.7738,1.7737,0,0,0,0,0,0,0,0,1.7785,1.7782,1.7764,1.7765,1.7766,1.7756,1.7749,1.7728,1.7765,1.7765,1.7768,1.7769,1.7749,1.7747,1.7741,1.7704,1.7703,1.7738,1.7736,1.7736,1.7735,0,0,0,0,0,0,0,1.7786,1.7783,1.7749,1.7764,1.7765,1.777,1.7769,1.7745,1.7749,1.7765,1.7767,1.7765,1.7749,1.7743,1.774,1.7703,1.7738,1.7736,1.7735,1.7734,1.7637,1.7635,0,0,0,0,0,0,1.7787,1.7784,1.7749,1.7748,1.7779,1.7768,1.7767,1.7758,1.775,1.775,1.7764,1.7767,1.7746,1.7743,1.774,1.7696,1.7736,1.7734,1.7732,1.7638,1.7636,1.7635,0,0,0,0,0,0,1.7788,1.7783,1.775,1.7767,1.7763,1.7766,1.7755,1.7757,1.775,1.7749,1.775,1.7757,1.7747,1.7743,1.7715,1.7695,1.7733,1.7731,1.764,1.7637,1.7636,1.7606,0,0,0,0,0,0,1.7789,1.7784,1.7769,1.7766,1.7762,1.7725,1.7754,1.7755,1.7747,1.775,1.7742,1.7742,1.7747,1.7718,1.7713,1.7693,1.7729,1.7641,1.7639,1.7636,1.7609,1.7603,1.7599,0,0,0,0,0,1.7791,1.7759,1.7768,1.7764,1.7744,1.7724,1.7721,1.7729,1.7745,1.7731,1.7731,1.7743,1.7698,1.7714,1.7709,1.7689,1.7642,1.7639,1.7636,1.7611,1.7604,1.7599,0,0,0,0,0,0,1.7757,1.7759,1.7769,1.7736,1.773,1.7729,1.771,1.7721,1.7709,1.7712,1.7721,1.7719,1.769,1.7686,1.7704,1.7652,1.7673,1.7669,1.7656,1.7649,1.7644,1.7646,1.7728,0,0,0,0,0,1.7746,1.7731,1.7733,1.7704,1.7701,1.7706,1.7697,1.7705,1.7698,1.7695,1.7693,1.7685,1.767,1.7659,1.7645,1.7609,1.7608,1.7592,1.7587,1.7583,1.7579,1.7563,1.7556,1.7625,1.7625,1.7625,0,0,1.7722,1.7722,1.7711,1.7697,1.7693,1.7678,1.7703,1.7684,1.7673,1.7691,1.7666,1.7664,1.7656,1.7625,1.7611,1.7621,1.7561,1.7579,1.7576,1.7574,1.7559,1.7553,1.7547,1.7623,1.7623,1.7624,0,0,1.7672,1.7669,1.7646,1.7643,1.7639,1.7643,1.7638,1.7635,1.7636,1.7611,1.7626,1.7612,1.7584,1.7579,1.7573,1.7525,1.7536,1.752,1.7493,1.7477,1.7471,1.7467,1.7451,1.7446,1.7516,1.7516,1.7516,0,1.7642,1.762,1.7632,1.7614,1.7608,1.7628,1.7605,1.76,1.759,1.7586,1.7598,1.7567,1.7562,1.7532,1.7521,1.7514,1.7509,1.752,1.7472,1.7467,1.7463,1.7448,1.7442,1.7514,1.7514,1.7514,1.7514,0,1.7586,1.7571,1.7552,1.7546,1.7538,1.7517,1.7526,1.7516,1.7525,1.7528,1.7504,1.75,1.7487,1.748,1.7486,1.7451,1.7458,1.747,1.7492,1.7454,1.7441,1.7435,1.7511,1.7512,1.7513,1.7513,0,0,1.7511,1.7515,1.7508,1.7507,1.7505,1.7493,1.7474,1.7464,1.7456,1.7449,1.7434,1.7412,1.7426,1.7419,1.7425,1.7411,1.7376,1.7426,1.7426,1.7418,1.7339,1.7331,1.7324,1.7384,1.7383,1.7382,1.7341,0,1.7463,1.7432,1.7444,1.7412,1.7399,1.742,1.7403,1.74,1.7403,1.7392,1.7395,1.7381,1.7398,1.7395,1.7382,1.7383,1.7361,1.7386,1.737,1.7369,1.7373,1.7317,1.7306,1.7267,1.7335,1.7335,1.7334,0,1.7402,1.7397,1.7364,1.7368,1.7363,1.7348,1.7342,1.7331,1.7329,1.7332,1.7326,1.7337,1.7319,1.7341,1.7316,1.7333,1.7328,1.7328,1.7327,1.7326,1.735,1.7315,1.7255,1.7249,1.7325,1.7326,1.7327,0,1.7354,1.7338,1.7317,1.7315,1.7319,1.7308,1.7309,1.7308,1.7302,1.7296,1.7293,1.7283,1.7278,1.7271,1.7279,1.7294,1.7254,1.7276,1.7257,1.7257,1.7247,1.7248,1.7186,1.7242,1.7242,1.7242,1.7242,0,1.7299,1.7279,1.7296,1.7284,1.7262,1.7276,1.7254,1.7257,1.7257,1.7245,1.7261,1.7249,1.7261,1.725,1.7256,1.7237,1.7234,1.7236,1.7238,1.7235,1.7235,1.7232,1.7235,1.7241,1.7241,1.7241,1.7242,0,1.7241,1.7252,1.7231,1.7238,1.7239,1.7223,1.7228,1.7217,1.7223,1.7208,1.7205,1.7213,1.7202,1.721,1.7198,1.7203,1.7177,1.7182,1.7179,1.7181,1.7162,1.7164,1.7096,1.7089,1.7148,1.7148,1.7147,0,1.7205,1.7191,1.7197,1.7192,1.7193,1.7183,1.7179,1.7192,1.7187,1.7185,1.7175,1.7166,1.7159,1.7141,1.7145,1.7137,1.7142,1.7119,1.7141,1.714,1.7144,1.7145,1.7145,1.7115,1.7114,1.7114,1.7113,0,1.7143,1.715,1.7144,1.714,1.7135,1.7132,1.713,1.7125,1.7139,1.7132,1.7123,1.7118,1.7108,1.7099,1.7094,1.7093,1.7106,1.7107,1.7102,1.7099,1.7099,1.7101,1.7168,1.7108,1.7108,1.7109,1.7109,1.7109,1.7096,1.7086,1.709,1.7083,1.7084,1.7083,1.7074,1.708,1.7073,1.7068,1.7076,1.7065,1.7066,1.7059,1.7058,1.705,1.7059,1.7052,1.705,1.7048,1.7047,1.71,1.7048,1.7048,1.7048,1.7049,1.7049,0,1.7036,1.704,1.7034,1.7034,1.7029,1.7043,1.7043,1.7038,1.7029,1.7029,1.7024,1.7014,1.7007,1.7012,1.7006,1.6998,1.7004,1.6996,1.6997,1.6997,1.7038,1.7043,1.6992,1.6992,1.6992,1.6992,1.6992,1.6992,1.7004,1.6988,1.6996,1.6981,1.6986,1.6977,1.6976,1.6975,1.6977,1.6966,1.6961,1.6965,1.6968,1.6963,1.6957,1.6959,1.6956,1.6947,1.6951,1.6988,1.6994,1.6999,1.7005,1.6946,1.6946,1.6911,1.6911,1.691]}]]